Aberdeen, SD

6:12 PM CST on January 19, 2017 (GMT -0600)
Aberdeen Regional

Weather History for KABR - July, 2012

Change the Weather History Date:

Tuesday, July 24, 2012

  Actual Average Record
Temperature  
Mean Temperature 77 °F 72 °F  
Max Temperature 83 °F 84 °F 108 °F (1931)
Min Temperature 70 °F 60 °F 46 °F (1905)
Degree Days  
Heating Degree Days 0 0  
Month to date heating degree days 0 8  
Since 1 June heating degree days 31 84  
Since 1 July heating degree days 0 8  
Cooling Degree Days 12 7  
Month to date cooling degree days 320 159  
Year to date cooling degree days 545 274  
Since 1 June cooling degree days 503 251  
Growing Degree Days 26 (Base 50)    
Moisture  
Dew Point 69 °F    
Average Humidity 79    
Maximum Humidity 90    
Minimum Humidity 67    
Precipitation  
Precipitation 0.06 in 0.09 in 1.47 in (1957)
Month to date precipitation 2.22 2.43  
Year to date precipitation 10.20 13.27  
Sea Level Pressure  
Sea Level Pressure 29.76 in    
Wind  
Wind Speed 11 mph (ENE)    
Max Wind Speed 18 mph    
Max Gust Speed 24 mph    
Visibility 10 miles    
Events Thunderstorm    
T = Trace of Precipitation, MM = Missing Value Source: NWS Daily Summary

Daily Weather History Graph

Daily Weather History Graph

Search for Another Location

Airport or City:

Trip Planner

Search our weather history database for the weather conditions in past years. The results will help you decide how hot, cold, wet, or windy it might be!

Date:

Astronomy

Jul. 24, 2012 Rise Set
Actual Time 6:09 AM CDT 9:10 PM CDT
Civil Twilight 5:34 AM CDT 9:45 PM CDT
Nautical Twilight 4:49 AM CDT 10:30 PM CDT
Astronomical Twilight 3:54 AM CDT 11:24 PM CDT
Moon 12:30 PM CDT (7/24) 11:36 PM CDT (7/24)
Length of Visible Light 16h 11m
Length of Day
15h 01m
Waxing Crescent, 32% of the Moon is Illuminated
Jul 24
Waxing Crescent
Jul 26
First Quarter
Aug 1
Full
Aug 9
Last Quarter
Aug 17
New

Hourly Weather History & Observations

Time (CDT) Temp. Heat Index Dew Point Humidity Pressure Visibility Wind Dir Wind Speed Gust Speed Precip Events Conditions
12:53 AM 70.0 °F - 66.0 °F 87% 29.88 in 10.0 mi NE 10.4 mph - N/A   Clear
1:53 AM 70.0 °F - 66.0 °F 87% 29.88 in 10.0 mi NE 9.2 mph - N/A   Clear
2:53 AM 70.0 °F - 66.0 °F 87% 29.87 in 10.0 mi NE 6.9 mph - N/A   Clear
3:53 AM 70.0 °F - 66.0 °F 87% 29.87 in 10.0 mi NE 9.2 mph - N/A   Clear
4:53 AM 70.0 °F - 64.9 °F 84% 29.86 in 10.0 mi NE 8.1 mph - N/A   Clear
5:53 AM 70.0 °F - 64.9 °F 84% 29.81 in 10.0 mi NE 15.0 mph - N/A   Clear
6:53 AM 71.1 °F - 64.0 °F 78% 29.83 in 10.0 mi ESE 8.1 mph 18.4 mph N/A   Clear
7:53 AM 72.0 °F - 64.9 °F 78% 29.84 in 10.0 mi NE 5.8 mph - N/A   Partly Cloudy
8:53 AM 75.0 °F - 66.0 °F 73% 29.85 in 10.0 mi East 10.4 mph - N/A   Clear
9:53 AM 77.0 °F - 66.9 °F 71% 29.84 in 10.0 mi East 13.8 mph 19.6 mph N/A   Clear
10:53 AM 78.1 °F - 66.9 °F 68% 29.83 in 10.0 mi ESE 11.5 mph - N/A   Clear
11:53 AM 79.0 °F - 68.0 °F 69% 29.81 in 10.0 mi ESE 12.7 mph - N/A   Clear
12:53 PM 80.1 °F 82.9 °F 69.1 °F 69% 29.80 in 10.0 mi ESE 8.1 mph - N/A   Clear
1:53 PM 79.0 °F - 69.1 °F 72% 29.78 in 10.0 mi East 10.4 mph - N/A   Clear
2:53 PM 79.0 °F - 70.0 °F 74% 29.76 in 10.0 mi East 12.7 mph - 0.00 in   Partly Cloudy
3:53 PM 81.0 °F 84.4 °F 70.0 °F 69% 29.74 in 10.0 mi East 16.1 mph - N/A   Clear
4:53 PM 82.9 °F 87.5 °F 71.1 °F 67% 29.72 in 10.0 mi East 15.0 mph - N/A   Clear
5:53 PM 82.9 °F 88.0 °F 72.0 °F 69% 29.69 in 10.0 mi East 16.1 mph - N/A   Clear
6:53 PM 82.0 °F 87.4 °F 73.0 °F 74% 29.66 in 10.0 mi ENE 15.0 mph - N/A   Clear
7:53 PM 81.0 °F 85.8 °F 73.0 °F 77% 29.65 in 10.0 mi NE 12.7 mph - N/A   Clear
8:53 PM 79.0 °F - 72.0 °F 79% 29.64 in 10.0 mi NE 9.2 mph - N/A   Clear
9:53 PM 77.0 °F - 72.0 °F 84% 29.61 in 10.0 mi NE 9.2 mph - N/A   Clear
10:53 PM 75.9 °F - 72.0 °F 87% 29.60 in 10.0 mi North 9.2 mph - N/A   Partly Cloudy
11:18 PM 75.2 °F - 71.6 °F 89% 29.62 in 10.0 mi North 11.5 mph - N/A Thunderstorm Partly Cloudy
11:33 PM 75.2 °F - 71.6 °F 89% 29.62 in 10.0 mi North 11.5 mph - N/A   Clear
11:53 PM 75.0 °F - 71.1 °F 87% 29.60 in 10.0 mi North 10.4 mph - N/A   Clear